{"data":{"norad_id":31125,"intl_designator":"2007-012J","name":"SAUDICOMSAT 3","alt_names":[],"object_type":"PAYLOAD","status":"ACTIVE","operator":null,"country":"SAUD","launch_date":"2007-04-17","launch_site_code":"TYMSC","launch_vehicle":null,"mission":null,"orbit_class":"UNKNOWN","rcs_meters":0.0748,"size_class":null,"mass_kg":null,"dimensions":null,"purposes":[],"wikipedia_slug":null,"has_3d_model":false,"image_url":null,"decayed_at":null,"tle_current":{"epoch":"2026-05-25T04:29:10.797792Z","epoch_age_seconds":62906,"freshness":"FRESH","line1":"1 31125U 07012J   26145.18693053  .00000668  00000+0  11712-3 0  9999","line2":"2 31125  98.3132 120.1535 0040263 123.5904 236.9155 14.70662189 21442","mean_motion":14.70662189,"eccentricity":0.0040263,"inclination_deg":98.3132,"raan_deg":120.1535,"arg_perigee_deg":123.5904,"mean_anomaly_deg":236.9155,"bstar":0.00011712,"rev_number":2144,"period_min":97.915075995742,"perigee_km":630.62146975779,"apogee_km":687.28835609582,"semimajor_km":7037.0919129268,"source":"CELESTRAK","updated_at":"2026-05-25T13:37:55.096679Z"}}}